Probability
0 0 0 0 0 0 0 0 0 0 0 0 0 0 0 0 0 0 0 0 0 0 0 0 0 0 0 0 0 0 0 0 0 0 0 0 0 0 0 0 0 0 0
0 0 0 0 0 0 0 0 0 0 0 0 0 0 0 0 0 0 0 0 0 0 0 0 0 0 0 0 0 0 0 0 0 0 0 0 0 0 0 0 0 0 0
0 0 0 0 0 0 0 0 0 0 0 0 0 0 0 0 0 0 0 0 0 0 0 0 0 0 0 0 0 0 0 0 0 0 0 0 0 0 0 0 0 0 0
0 0 0 0 0 0 0 0 0 0 0 0 0 0 0 0 0 0 0 0 0 0 0 0 0 0 0 0 0 0 0 0 0 0 0 0 0 0 0 0 0 0 0
0 0 0 0 0 0 0 0 0 0 0 0 0 0 0 0 0 0 0 0 0 0 0 0 0 0 0 0 0 0 0 0 0 0 0 0 0 0 0 0 0 0 0
0 0 0 0 0 0 0 0 0 0 0 0 0 0 0 0 0 0 0 0 0 0 0 0 0 0 0 0 0 0 0 0 0 0 0 0 0 0 0 0 0 0 0
0 0 0 0 0 0 0 0 0 0 0 0 0 0 0 0 0 0 0 0 0 0 0 0 0 0 0 0 0 0 0 0 0 0 0 0 0 0 0 0 0 0 0
0 0 0 0 0 0 0 0 0 0 0 0 0 0 0 0 0 0 0 0 0 0 0 0 0 0 0 0 0 0 0 0 0 0 0 0 0 0 0 0 0 0 0
0 0 0 0 0 0 0 0 0 0 0 0 0 0 0 0 0 0 0 0 0 0 0 0 0 0 0 0 0 0 0 0 0 0 0 0 0 0 0 0 0 0 0
0 0 0 0 0 0 0 0 0 0 0 0 0 0 0 0 0 0 0 0 0 0 0 0 0 0 0 0 0 0 0 0 0 0 0 0 0 0 0 0 0 0 0
0 0 0 0 0 0 0 0 0 0 0 0 0 0 0 0 0 0 0 0 0 0 0 0 0 0 0 0 0 0 0 0 0 0 0 0 0 0 0 0 0 0 0
0 0 0 0 0 0 0 0 0 0 0 0 0 0 0 0 0 0 0 0 0 0 0 0 0 0 0 0 0 0 0 0 0 0 0 0 0 0 0 0 0 0 0
0 0 0 0 0 0 0 0 0 0 0 0 0 0 0 0 0 0 0 0 0 0 0 0 0 0 0 0 0 0 0 0 0 0 0 0 0 0 0 0 0 0 0
0 0 0 0 0 0 0 0 0 0 0 0 0 0 0 0 0 0 0 0 0 0 0 0 0 0 0 0 0 0 0 0 0 0 0 0 0 0 0 0 0 0 0
0 0 0 0 0 0 0 0 0 0 0 0 0 0 0 0 0 0 0 0 0 0 0 0 0 0 0 0 0 0 0 0 0 0 0 0 0 0 0 0 0 0 0
0 0 0 0 0 0 0 0 0 0 0 0 0 0 0 0 0 0 0 0 0 0 0 0 0 0 0 0 0 0 0 0 0 0 0 0 0 0 0 0 0 0 0
0 0 0 0 0 0 0 0 0 0 0 0 0 0 0 0 0 0 0 0 0 0 0 0 0 0 0 0 0 0 0 0 0 0 0 0 0 0 0 0 0 0 0
0 0 0 0 0 0 0 0 0 0 0 0 0 0 0 0 0 0 0 0 0 0 0 0 0 0 0 0 0 0 0 0 0 0 0 0 0 0 0 0 0 0 0
0 0 0 0 0 0 0 0 0 0 0 0 0 0 0 0 0 0 0 0 0 0 0 0 0 0 0 0 0 0 0 0 0 0 0 0 0 0 0 0 0 0 0
0 0 0 0 0 0 0 0 0 0 0 0 0 0 0 0 0 0 0 0 0 0 0 0 0 0 0 0 0 0 0 0 0 0 0 0 0 0 0 0 0 0 0
0 0 0 0 0 0 0 0 0 0 0 0 0 0 0 0 0 0 0 0 0 0 0 0 0 0 0 0 0 0 0 0 0 0 0 0 0 0 0 0 0 0 0
0 0 0 0 0 0 0 0 0 0 0 0 0 0 0 0 0 0 0 0 0 0 0 0 0 0 0 0 0 0 0 0 0 0 0 0 0 0 0 0 0 0 0
0 0 0 0 0 0 0 0 0 0 0 0 0 0 0 0 0 0 0 0 0 0 0 0 0 0 0 0 0 0 0 0 0 0 0 0 0 0 0 0 0 0 0
0 0 0 0 0 0 0 0 0 0 0 0 0 0 0 0 0 0 0 0 0 0 0 0 0 0 0 0 0 0 0 0 0 0 0 0 0 0 0 0 0 0 0
0 0 0 0 0 0 0 0 0 0 0 0 0 0 0 0 0 0 0 0 0 0 0 0 0 0 0 0 0 0 0 0 0 0 0 0 0 0 0 0 0 0 0
0 0 0 0 0 0 0 0 0 0 0 0 0 0 0 0 0 0 0 0 0 0 0 0 0 0 0 0 0 0 0 0 0 0 0 0 0 0 0 0 0 0 0
Wind_Speed
0 0 0 0 0 1 1 1 1 1 2 3 3 3 3 3 3 4 4 3 4 4 3 4 5 3 3 3 2 2 3 3 6 4 2 3 3 3 3 3 3 4 5
1 1 0 1 1 1 0 1 1 1 1 2 2 3 3 3 3 4 4 4 5 5 4 4 5 3 4 3 3 3 3 4 4 6 4 3 4 4 4 4 4 3 4
1 1 1 1 1 0 1 1 0 1 1 1 1 2 2 2 3 3 4 4 5 5 5 5 5 4 4 3 4 4 3 4 4 4 5 3 3 2 4 4 4 3 4
1 1 1 1 0 1 0 0 0 0 1 1 1 1 2 2 2 3 3 4 4 4 4 4 4 5 5 5 4 4 3 3 3 4 4 4 3 2 2 4 5 3 4
1 1 1 1 1 1 1 0 0 0 1 1 1 1 1 1 2 3 3 3 4 3 3 4 4 4 5 5 4 4 4 4 3 4 4 4 3 2 3 3 5 4 5
1 1 1 1 1 1 1 1 1 1 1 1 1 1 1 1 2 4 3 3 3 4 4 4 3 4 5 6 6 6 5 5 5 5 5 6 6 4 3 3 4 4 4
2 2 2 1 1 1 1 1 1 1 0 1 1 1 2 3 3 3 3 2 3 3 3 3 2 2 3 3 5 6 6 7 8 6 6 7 6 5 4 5 4 5 6
2 2 2 2 2 2 1 1 1 1 1 1 1 2 2 3 4 3 3 2 2 3 3 3 3 3 3 2 2 3 4 5 7 5 6 6 5 4 4 5 5 5 5
2 3 3 2 2 2 2 2 2 1 2 2 1 1 2 3 4 4 3 2 2 3 3 3 3 3 5 4 3 4 4 5 6 7 8 8 8 7 4 1 2 2 4
3 3 3 2 2 2 2 2 2 1 2 2 2 1 2 3 4 4 3 2 2 3 3 3 4 5 6 5 4 3 5 5 3 4 5 6 5 5 5 3 3 3 3
3 3 3 2 2 2 2 2 2 2 2 2 2 2 2 3 5 5 4 2 3 3 3 3 3 6 7 7 5 4 6 5 3 3 4 3 2 2 2 2 2 3 4
3 3 3 3 2 2 2 2 2 2 2 2 2 3 3 3 3 5 6 5 4 3 4 3 3 6 7 7 5 6 6 4 2 2 3 3 3 3 3 2 3 3 4
3 3 3 3 3 2 2 2 2 1 2 2 2 3 3 2 3 6 7 7 7 4 3 5 6 6 6 5 6 6 4 2 2 3 4 4 3 3 2 2 3 3 3
3 3 3 3 3 3 2 1 2 2 2 3 3 4 3 3 3 3 3 4 5 5 4 4 5 5 4 4 3 3 2 2 2 3 3 3 2 2 2 2 2 2 2
3 3 3 3 3 3 3 2 3 3 4 4 4 3 4 4 5 6 4 3 3 3 2 1 1 2 2 2 2 2 2 2 2 2 2 3 3 2 2 2 2 2 2
3 3 3 3 3 3 3 4 5 6 7 8 8 6 5 7 8 8 8 7 6 4 1 2 2 3 3 3 3 3 2 2 3 3 3 3 3 3 3 2 2 2 3
3 3 3 3 3 3 3 3 5 6 7 8 9 9 9 9 9 9 8 8 6 3 2 3 4 4 4 4 4 4 4 3 3 3 3 3 3 3 3 3 3 3 3
3 3 3 3 3 3 4 4 4 5 6 5 7 10 10 10 10 9 8 5 4 3 3 4 4 4 4 4 4 4 4 3 3 3 3 3 3 3 3 3 3 4 4
3 3 3 3 3 4 4 4 4 5 5 6 5 6 8 9 9 8 6 3 4 4 4 5 5 4 4 4 4 4 4 4 4 3 3 4 3 3 4 4 4 4 4
3 4 4 3 3 4 4 4 4 4 5 5 5 5 4 3 4 4 4 4 5 5 5 5 5 5 5 4 4 4 4 4 4 4 4 4 4 4 4 5 4 4 4
3 4 4 3 3 4 4 5 5 5 5 5 6 6 8 5 5 6 5 5 5 6 5 5 5 5 5 4 4 5 5 5 4 4 4 4 4 4 4 4 4 4 4
3 3 3 3 4 4 5 5 5 5 6 6 6 6 9 5 5 5 6 6 6 5 5 5 5 5 5 5 5 5 5 5 5 5 4 4 4 4 4 4 4 3 4
3 4 4 4 4 5 5 5 5 5 6 6 6 5 5 5 5 6 6 6 5 5 5 5 5 5 5 5 5 6 6 6 5 5 5 4 4 4 4 4 4 4 4
4 4 5 4 4 4 5 5 5 5 5 6 5 5 6 5 6 7 6 6 5 5 5 5 5 7 8 6 5 5 6 6 5 5 7 6 5 4 4 4 4 5 4
4 4 5 5 5 5 5 5 5 5 5 5 5 5 6 6 6 6 6 5 6 6 6 6 5 6 7 8 7 6 7 8 7 5 5 5 6 6 5 5 5 4 4
4 5 5 4 5 5 5 5 6 6 6 6 6 6 6 6 6 6 5 5 5 5 6 5 6 7 8 7 8 8 8 9 8 8 6 5 5 5 5 4 5 4 4
Wind_Direction
26 177 144 175 179 169 210 240 244 227 207 208 212 211 211 209 204 204 210 203 211 223 221 221 229 219 219 215 211 217 224 223 250 272 265 282 274 283 293 278 267 265 274
14 50 61 61 83 119 239 268 262 247 231 220 209 211 217 214 208 208 214 210 214 221 223 223 232 220 222 217 212 221 228 226 237 264 275 274 271 282 290 285 280 270 268
23 58 48 42 51 337 276 277 265 257 259 246 212 211 215 213 213 218 217 217 221 223 221 223 227 217 227 224 219 223 229 234 233 250 270 273 274 283 296 292 287 280 279
13 30 11 334 303 293 313 322 269 259 266 250 229 217 219 215 216 220 220 222 225 230 230 228 225 220 227 224 224 228 227 234 241 251 266 276 274 288 291 294 298 293 287
359 347 312 327 343 7 15 3 23 29 303 287 256 247 242 224 224 216 219 223 226 234 238 236 234 233 234 229 230 226 218 228 239 253 261 274 270 282 277 281 283 296 287
323 317 346 12 20 7 350 3 19 7 339 338 284 260 259 263 271 233 217 222 227 231 238 242 242 231 242 249 252 245 229 228 236 242 252 256 262 262 268 270 282 295 287
349 351 3 7 1 344 344 359 308 284 303 300 298 287 275 285 288 267 245 232 227 233 240 246 251 255 240 248 258 257 250 251 245 242 252 256 263 255 259 267 262 263 263
6 0 1 357 338 340 344 314 298 300 275 268 281 279 280 299 300 284 264 242 242 247 242 242 246 251 246 246 245 251 251 251 252 247 248 258 262 261 247 253 259 270 276
358 346 342 335 326 326 313 305 306 302 293 288 298 293 286 296 302 295 274 256 254 259 257 249 249 251 266 266 246 253 267 268 268 262 263 268 270 268 259 261 269 275 280
331 323 325 326 318 308 300 306 307 290 286 292 301 297 288 293 302 295 276 257 263 271 269 259 254 264 275 263 244 244 262 272 276 281 276 279 275 267 256 241 234 249 269
327 330 334 330 314 305 310 319 312 300 303 297 296 297 292 290 294 293 283 258 262 267 268 268 265 273 273 267 261 247 262 283 269 264 271 276 277 264 255 257 251 240 243
333 336 335 328 321 323 317 319 321 303 291 288 290 291 289 289 288 290 284 275 277 262 265 272 276 280 276 272 264 274 282 286 272 271 272 270 271 274 277 272 270 270 263
334 329 329 331 328 326 315 312 312 300 286 286 284 283 288 289 286 286 282 280 281 271 274 282 285 283 280 272 277 283 284 264 256 264 266 270 273 273 282 292 292 286 288
318 317 323 324 321 320 311 302 291 278 273 273 272 276 284 286 281 279 270 272 274 273 279 286 287 286 287 295 296 282 269 256 249 256 269 285 294 281 271 280 285 293 296
310 311 314 311 309 306 297 280 271 261 258 264 264 267 272 272 275 277 276 261 253 258 263 268 286 295 288 291 293 289 282 270 260 268 269 279 282 280 281 285 281 277 263
306 308 305 305 302 298 298 302 290 285 292 288 285 281 278 281 290 282 280 278 277 274 228 241 255 257 259 264 267 275 267 261 264 265 261 263 267 270 280 285 275 261 266
284 292 295 298 297 297 294 293 300 306 296 293 293 291 287 292 293 287 283 283 281 254 227 245 248 250 252 254 253 255 261 263 258 257 258 260 261 264 268 274 272 269 270
286 282 282 283 285 283 281 278 277 284 296 297 296 292 293 294 294 292 286 281 272 252 237 245 248 248 248 249 249 252 259 261 251 249 253 256 253 256 259 259 258 257 265
288 286 285 285 282 278 277 276 273 271 275 286 296 298 296 294 292 289 285 250 250 251 246 247 247 247 248 249 249 247 245 248 246 244 246 244 244 248 252 253 253 253 256
284 289 294 286 283 282 278 275 273 272 274 279 282 287 299 294 280 277 255 244 247 250 248 248 248 244 243 244 245 243 244 244 241 240 242 242 240 241 249 252 248 247 249
289 291 292 290 281 277 277 275 274 271 270 273 275 278 282 277 274 270 262 251 246 248 248 247 248 246 242 240 239 239 238 241 239 239 239 238 235 240 246 251 250 246 249
285 286 285 281 283 284 281 278 275 273 270 272 279 284 284 277 271 271 267 261 251 245 243 242 246 243 238 236 236 237 239 239 237 234 235 236 234 238 242 244 246 249 245
282 284 285 280 278 280 282 280 279 278 276 274 276 277 273 265 266 266 267 269 268 259 249 241 245 249 242 237 234 233 237 238 233 227 229 232 231 231 234 239 238 243 247
276 277 279 281 278 274 276 279 278 278 281 284 282 278 275 270 268 269 269 269 268 266 260 251 247 247 248 248 245 240 240 241 231 225 221 224 227 228 229 236 237 238 242
275 276 275 276 277 277 279 280 281 280 280 280 280 280 282 282 279 275 273 270 268 267 264 259 256 254 252 251 251 250 249 250 246 230 218 218 221 223 224 229 233 234 236
272 272 273 273 273 274 276 280 282 283 281 280 278 278 278 279 280 282 282 279 277 273 270 265 256 255 257 257 256 256 252 247 241 232 218 213 216 221 218 225 223 223 223